This is the latest recevied weather packets stored in our database for station/object SP9EPI-13. If no packets are shown the sender has not sent any weather packets the latest 10 day(s).
| Time | Temp. | Humidity | Pressure | Rain* | Wind** | Luminosity | Snow |
|---|---|---|---|---|---|---|---|
| 1777324201 | 2.78° C | 83% | 1016.9 hPa | - | - | - | - |
| 1777323601 | 2.78° C | 81% | 1016.9 hPa | - | - | - | - |
| 1777323001 | 2.78° C | 83% | 1016.9 hPa | - | - | - | - |
| 1777322401 | 2.78° C | 82% | 1016.9 hPa | - | - | - | - |
| 1777321800 | 2.78° C | 86% | 1016.9 hPa | - | - | - | - |
| 1777321200 | 2.78° C | 80% | 1017.2 hPa | - | - | - | - |
| 1777320601 | 3.89° C | 73% | 1017.2 hPa | - | - | - | - |
| 1777320001 | 3.89° C | 74% | 1017.2 hPa | - | - | - | - |
| 1777319401 | 5° C | 72% | 1017.2 hPa | - | - | - | - |
| 1777318801 | 5° C | 69% | 1017.2 hPa | - | - | - | - |
| 1777318200 | 5° C | 64% | 1016.9 hPa | - | - | - | - |
| 1777317600 | 5° C | 64% | 1016.9 hPa | - | - | - | - |
| 1777317001 | 6.11° C | 63% | 1016.9 hPa | - | - | - | - |
| 1777316401 | 7.22° C | 56% | 1016.9 hPa | - | - | - | - |
| 1777315800 | 7.22° C | 56% | 1016.5 hPa | - | - | - | - |
| 1777315201 | 7.22° C | 53% | 1016.5 hPa | - | - | - | - |
| 1777314601 | 7.78° C | 48% | 1016.5 hPa | - | - | - | - |
| 1777314000 | 8.89° C | 45% | 1016.2 hPa | - | - | - | - |
| 1777313401 | 10° C | 41% | 1016.2 hPa | - | - | - | - |
| 1777312801 | 11.11° C | 39% | 1016.2 hPa | - | - | - | - |
| 1777312201 | 11.11° C | 38% | 1016.2 hPa | - | - | - | - |
| 1777311601 | 12.22° C | 37% | 1016.2 hPa | - | - | - | - |
| 1777311001 | 12.22° C | 35% | 1015.9 hPa | - | - | - | - |
| 1777310401 | 12.78° C | 32% | 1015.9 hPa | - | - | - | - |
| 1777309801 | 12.78° C | 30% | 1015.9 hPa | - | - | - | - |
* Rain since midnight (hover to see other rain measurements)
** Current wind speed in m/s (hover to see current wind gust speed)